Voltar ao catálogo

ONEWEB-0245

AtivoComunicaçõesPO
NORAD 48778·PAYLOAD·🇬🇧 United Kingdom

Lançado May 28, 2021 de Vostochny Cosmodrome

Loading…

Próximas Passagens (próximas 24 horas)

TLE

AtualizadoSource: CelesTrak SupGP

Época: Sep 14, 2026, 19:44 UTC

1 48778C 21045M   26257.82275880  .00002912  00000+0  77437-2 0  2578
2 48778  87.8983 241.3249 0001852  82.9706 317.8710 13.15543525    14

Acompanhe ONEWEB-0245 em tempo real com AllMySat

Download on the App Store